Tracking 22130 objects as of 21-Jan-2021
HD Live streaming from Space Station
objects crossing your sky now

COSMOS 2340

Track COSMOS 2340 now!
COSMOS 2340 is classified as:


NORAD ID: 24761
Int'l Code: 1997-015A
Perigee: 3,061.8 km
Apogee: 37,284.7 km
Inclination: 66.6 °
Period: 717.3 minutes
Semi major axis: 26544 km
RCS: 6.3095 m2 (large)
Launch date: April 9, 1997
Source: Commonwealth of Independent States (former USSR) (CIS)
Launch site: PLESETSK MISSILE AND SPACE COMPLEX (PKMTR)
aabbcc
Your satellite tracking list
Your tracking list is empty




NASA's NSSDC Master Catalog

Two Line Element Set (TLE):
1 24761U 97015A   21016.77515801  .00000590  00000-0  00000-0 0  9990
2 24761  66.5856 324.1372 6446377 175.1927 197.1685  2.00745690174179
Source of the keplerian elements: AFSPC